Weather History for KAFN - October, 2013

Change the Weather History Date:

Sunday, October 6, 2013

  Actual Average Record
Temperature  
Mean Temperature 52 °F -  
Max Temperature 57 °F 59 °F 79 °F (1997)
Min Temperature 48 °F 38 °F 27 °F (1998)
Degree Days  
Heating Degree Days 12    
Growing Degree Days 2 (Base 50)    
Moisture  
Dew Point 51 °F    
Average Humidity 94    
Maximum Humidity 100    
Minimum Humidity 88    
Precipitation  
Precipitation 0.34 in - - ()
Sea Level Pressure  
Sea Level Pressure 30.19 in    
Wind  
Wind Speed 1 mph (NNE)    
Max Wind Speed 6 mph    
Max Gust Speed -    
Visibility 4 miles    
Events Rain    
Averages and records for this station are not official NWS values.
T = Trace of Precipitation, MM = Missing Value Source: NWS Daily Summary

Daily Weather History Graph

Daily Weather History Graph

Search for Another Location

Airport or City:

Trip Planner

Search our weather history database for the weather conditions in past years. The results will help you decide how hot, cold, wet, or windy it might be!

Date:

Astronomy

Oct. 06, 2013 Rise Set
Actual Time 6:51 AM EDT 6:20 PM EDT
Civil Twilight 6:22 AM EDT 6:48 PM EDT
Nautical Twilight 5:50 AM EDT 7:21 PM EDT
Astronomical Twilight 5:17 AM EDT 7:54 PM EDT
Moon 8:35 AM EDT (10/6) 7:13 PM EDT (10/6)
Length of Visible Light 12h 25m
Length of Day
11h 29m
Waxing Crescent, 3% of the Moon is Illuminated
Oct 6
Waxing Crescent
Oct 11
First Quarter
Oct 18
Full
Oct 26
Last Quarter
Nov 3
New

Hourly Weather History & Observations

Time (EDT) Temp. Dew Point Humidity Pressure Visibility Wind Dir Wind Speed Gust Speed Precip Events Conditions
12:00 AM 57.2 °F 55.4 °F 94% 30.14 in 4.0 mi Calm Calm - 0.00 in Rain Light Rain
12:08 AM 57.2 °F 55.4 °F 94% 30.14 in 5.0 mi Calm Calm - 0.00 in Rain Light Rain
12:30 AM 57.2 °F 55.4 °F 94% 30.14 in 3.0 mi Calm Calm - 0.01 in Rain Light Rain
12:42 AM 57.2 °F 55.4 °F 94% 30.15 in 3.0 mi Calm Calm - 0.02 in Rain Light Rain
12:52 AM 57.9 °F 55.9 °F 93% 30.16 in 5.0 mi Calm Calm - 0.02 in Rain Light Rain
1:52 AM 57.9 °F 55.9 °F 93% 30.16 in 6.0 mi Calm Calm - 0.00 in   Overcast
2:52 AM 57.9 °F 55.9 °F 93% 30.15 in 6.0 mi Calm Calm - 0.01 in Rain Light Rain
3:23 AM 57.2 °F 55.4 °F 94% 30.13 in 4.0 mi Calm Calm - 0.00 in Rain Light Rain
3:40 AM 57.2 °F 55.4 °F 94% 30.14 in 3.0 mi Calm Calm - 0.00 in Rain Light Rain
3:48 AM 57.2 °F 55.4 °F 94% 30.14 in 2.0 mi Calm Calm - 0.01 in Rain Light Rain
3:52 AM 57.9 °F 55.9 °F 93% 30.15 in 2.0 mi Calm Calm - 0.01 in Rain Light Rain
4:16 AM 57.2 °F 55.4 °F 94% 30.14 in 4.0 mi Calm Calm - 0.01 in Rain Light Rain
4:45 AM 57.2 °F 55.4 °F 94% 30.14 in 9.0 mi Calm Calm - 0.01 in Rain Light Rain
4:52 AM 57.0 °F 55.0 °F 93% 30.16 in 9.0 mi Calm Calm - 0.01 in Rain Light Rain
5:27 AM 57.2 °F 55.4 °F 94% 30.16 in 5.0 mi Calm Calm - 0.02 in Rain Light Rain
5:42 AM 57.2 °F 55.4 °F 94% 30.16 in 2.5 mi Calm Calm - 0.07 in Rain Heavy Rain
5:49 AM 57.2 °F 55.4 °F 94% 30.17 in 3.0 mi Calm Calm - 0.08 in Rain Rain
5:52 AM 57.0 °F 55.0 °F 93% 30.18 in 4.0 mi Calm Calm - 0.09 in Rain Rain
5:59 AM 55.4 °F 55.4 °F 100% 30.17 in 4.0 mi Variable 3.5 mph - 0.01 in Rain Rain
6:52 AM 54.0 °F 52.0 °F 93% 30.19 in 9.0 mi Calm Calm - 0.10 in Rain Light Rain
7:00 AM 53.6 °F 51.8 °F 94% 30.18 in 10.0 mi Variable 3.5 mph - 0.00 in Rain Light Rain
7:52 AM 53.1 °F 51.1 °F 93% 30.22 in 9.0 mi Calm Calm - 0.01 in Rain Light Rain
8:04 AM 53.6 °F 51.8 °F 94% 30.20 in 3.0 mi Calm Calm - 0.01 in Rain Light Rain
8:12 AM 53.6 °F 51.8 °F 94% 30.21 in 2.0 mi Calm Calm - 0.02 in Rain Rain
8:29 AM 51.8 °F 50.0 °F 94% 30.21 in 3.0 mi Variable 5.8 mph - 0.03 in Rain Light Rain
8:52 AM 51.1 °F 48.9 °F 92% 30.25 in 8.0 mi Variable 3.5 mph - 0.04 in   Overcast
9:52 AM 50.0 °F 48.0 °F 93% 30.26 in 9.0 mi Variable 3.5 mph - 0.00 in   Overcast
10:52 AM 48.9 °F 46.9 °F 93% 30.26 in 4.0 mi Variable 3.5 mph - N/A   Overcast
11:10 AM 48.2 °F 46.4 °F 93% 30.24 in 2.5 mi Variable 3.5 mph - 0.00 in Rain Light Rain
11:17 AM 48.2 °F 46.4 °F 93% 30.24 in 3.0 mi Calm Calm - 0.00 in   Overcast
11:52 AM 48.9 °F 46.9 °F 93% 30.26 in 8.0 mi Calm Calm - 0.00 in   Overcast
12:27 PM 48.2 °F 46.4 °F 93% 30.23 in 2.0 mi Variable 3.5 mph - N/A   Overcast
12:43 PM 48.2 °F 46.4 °F 93% 30.22 in 3.0 mi Calm Calm - 0.01 in   Overcast
12:52 PM 50.0 °F 48.0 °F 93% 30.25 in 3.0 mi Calm Calm - 0.01 in   Overcast
1:01 PM 50.0 °F 48.2 °F 94% 30.22 in 2.5 mi Calm Calm - 0.00 in Rain Light Rain
1:10 PM 50.0 °F 48.2 °F 94% 30.22 in 3.0 mi Calm Calm - 0.00 in   Overcast
1:52 PM 48.9 °F 48.0 °F 97% 30.23 in 3.0 mi Variable 3.5 mph - 0.00 in   Overcast
2:03 PM 50.0 °F 48.2 °F 94% 30.21 in 2.0 mi Variable 3.5 mph - N/A   Overcast
2:30 PM 50.0 °F 48.2 °F 94% 30.21 in 2.5 mi Calm Calm - 0.01 in Rain Light Rain
2:38 PM 50.0 °F 48.2 °F 94% 30.21 in 4.0 mi Calm Calm - 0.01 in Rain Light Rain
2:52 PM 50.0 °F 48.0 °F 93% 30.23 in 8.0 mi Calm Calm - 0.01 in   Overcast
3:04 PM 50.0 °F 48.2 °F 94% 30.20 in 8.0 mi Variable 3.5 mph - 0.00 in Rain Light Rain
3:42 PM 50.0 °F 48.2 °F 94% 30.20 in 6.0 mi Calm Calm - 0.00 in   Overcast
3:52 PM 50.0 °F 48.0 °F 93% 30.22 in 9.0 mi NNE 3.5 mph - 0.00 in   Overcast
4:52 PM 50.0 °F 48.0 °F 93% 30.22 in 3.0 mi NNE 3.5 mph - 0.00 in Rain Light Rain
5:24 PM 50.0 °F 48.2 °F 94% 30.19 in 2.5 mi Calm Calm - 0.00 in   Overcast
5:52 PM 50.0 °F 48.0 °F 93% 30.22 in 1.8 mi Calm Calm - 0.00 in   Overcast
6:19 PM 50.0 °F 48.2 °F 94% 30.19 in 2.0 mi Calm Calm - 0.01 in   Overcast
6:52 PM 50.0 °F 48.9 °F 96% 30.20 in 2.5 mi Calm Calm - 0.01 in   Overcast
7:08 PM 50.0 °F 48.2 °F 94% 30.18 in 3.0 mi Calm Calm - N/A   Overcast
7:52 PM 50.0 °F 48.9 °F 96% 30.21 in 2.5 mi Calm Calm - N/A   Overcast
8:05 PM 51.8 °F 48.2 °F 88% 30.19 in 3.0 mi Calm Calm - N/A   Overcast
8:52 PM 51.1 °F 48.9 °F 92% 30.20 in 3.0 mi Calm Calm - 0.01 in   Overcast
9:20 PM 51.8 °F 50.0 °F 94% 30.18 in 2.5 mi Calm Calm - N/A   Overcast
9:52 PM 52.0 °F 50.0 °F 93% 30.20 in 3.0 mi Calm Calm - N/A   Overcast
10:15 PM 51.8 °F 50.0 °F 94% 30.17 in 3.0 mi Calm Calm - N/A   Overcast
10:32 PM 51.8 °F 50.0 °F 94% 30.16 in 2.5 mi Calm Calm - 0.01 in   Overcast
10:50 PM 51.8 °F 50.0 °F 94% 30.16 in 3.0 mi Calm Calm - 0.01 in   Overcast
10:52 PM 52.0 °F 50.0 °F 93% 30.19 in 4.0 mi Calm Calm - 0.01 in   Overcast
11:52 PM 52.0 °F 51.1 °F 97% 30.17 in 4.0 mi Calm Calm - N/A   Overcast